| time (UTC) | temp C | wind direction | speed KPH | gust KPH | rain 1hr cm | rain 24hr cm | rain mn cm | humidity % | barometer mb |
| 20260504110509 | 10 | 244 | 3.2 | 4.8 | 0.00 | 0.00 | 0.00 | 69 | 1007.0 |
| 20260504100430 | 10 | 216 | 3.2 | 4.8 | 0.00 | 0.00 | 0.00 | 67 | 1007.3 |
| 20260504081824 | 10 | 135 | 3.2 | 4.8 | 0.00 | 0.00 | 0.00 | 65 | 1008.2 |
| 20260504081320 | 10 | 266 | 1.6 | 4.8 | 0.00 | 0.00 | 0.00 | 66 | 1008.1 |
| 20260504080816 | 11 | 217 | 3.2 | 4.8 | 0.00 | 0.00 | 0.00 | 65 | 1008.3 |
| 20260504080314 | 11 | 218 | 1.6 | 4.8 | 0.00 | 0.00 | 0.00 | 65 | 1008.3 |
| 20260504070241 | 11 | 159 | 1.6 | 3.2 | 0.00 | 0.00 | 0.00 | 65 | 1008.8 |
| 20260504060201 | 11 | 161 | 3.2 | 6.4 | 0.00 | 0.00 | 0.00 | 61 | 1009.8 |
| 20260504050629 | 11 | 227 | 1.6 | 4.8 | 0.00 | 0.00 | 0.00 | 59 | 1010.3 |
| 20260504050126 | 11 | 145 | 3.2 | 4.8 | 0.00 | 0.00 | 0.00 | 60 | 1010.2 |
| 20260504045623 | 11 | 229 | 3.2 | 6.4 | 0.00 | 0.00 | 0.00 | 60 | 1010.7 |
| 20260504045118 | 11 | 187 | 3.2 | 6.4 | 0.00 | 0.00 | 0.00 | 61 | 1010.4 |
| 20260504044616 | 11 | 232 | 3.2 | 4.8 | 0.00 | 0.00 | 0.00 | 62 | 1010.5 |
| 20260504044113 | 11 | 139 | 4.8 | 6.4 | 0.00 | 0.00 | 0.00 | 62 | 1010.4 |
| 20260504043610 | 11 | 141 | 4.8 | 4.8 | 0.00 | 0.00 | 0.00 | 63 | 1010.4 |
| 20260504043107 | 10 | 187 | 3.2 | 3.2 | 0.00 | 0.00 | 0.00 | 65 | 1010.4 |
| 20260504042604 | 11 | 218 | 3.2 | 4.8 | 0.00 | 0.00 | 0.00 | 64 | 1010.3 |
| 20260504042101 | 11 | 225 | 3.2 | 6.4 | 0.00 | 0.00 | 0.00 | 64 | 1010.4 |
| 20260504041556 | 11 | 134 | 3.2 | 3.2 | 0.00 | 0.00 | 0.00 | 65 | 1010.5 |
| 20260504041053 | 10 | 151 | 3.2 | 4.8 | 0.00 | 0.00 | 0.00 | 64 | 1010.5 |
| 20260504040551 | 10 | 143 | 3.2 | 4.8 | 0.00 | 0.00 | 0.00 | 65 | 1010.5 |
| 20260504040047 | 10 | 188 | 3.2 | 3.2 | 0.00 | 0.00 | 0.00 | 66 | 1010.8 |
| 20260504035544 | 10 | 230 | 3.2 | 4.8 | 0.00 | 0.00 | 0.00 | 66 | 1010.7 |
| 20260504035040 | 10 | 159 | 3.2 | 6.4 | 0.00 | 0.00 | 0.00 | 66 | 1010.9 |
| 20260504034538 | 10 | 146 | 3.2 | 3.2 | 0.00 | 0.00 | 0.00 | 67 | 1010.9 |
| 20260504034035 | 10 | 225 | 3.2 | 3.2 | 0.00 | 0.00 | 0.00 | 67 | 1011.0 |
| 20260504033533 | 10 | 142 | 3.2 | 6.4 | 0.00 | 0.00 | 0.00 | 67 | 1010.8 |
| 20260504033030 | 10 | 230 | 4.8 | 6.4 | 0.00 | 0.00 | 0.00 | 67 | 1010.9 |
| 20260504032527 | 10 | 225 | 3.2 | 4.8 | 0.00 | 0.00 | 0.00 | 68 | 1010.9 |
| 20260504032024 | 10 | 135 | 6.4 | 6.4 | 0.00 | 0.00 | 0.00 | 67 | 1011.1 |
| 20260504031521 | 10 | 146 | 4.8 | 6.4 | 0.00 | 0.00 | 0.00 | 67 | 1011.0 |
| 20260504031017 | 10 | 126 | 4.8 | 9.7 | 0.00 | 0.00 | 0.00 | 67 | 1011.2 |
| 20260504030514 | 10 | 125 | 4.8 | 6.4 | 0.00 | 0.00 | 0.00 | 67 | 1011.2 |
| 20260504030010 | 10 | 121 | 3.2 | 9.7 | 0.00 | 0.00 | 0.00 | 66 | 1011.2 |
| 20260504025507 | 10 | 226 | 3.2 | 4.8 | 0.00 | 0.00 | 0.00 | 67 | 1011.3 |
| 20260504025004 | 10 | 159 | 4.8 | 6.4 | 0.00 | 0.00 | 0.00 | 67 | 1011.2 |
| 20260504024502 | 10 | 158 | 3.2 | 6.4 | 0.00 | 0.00 | 0.00 | 67 | 1011.2 |
| 20260504023958 | 10 | 227 | 4.8 | 9.7 | 0.00 | 0.00 | 0.00 | 67 | 1011.3 |
| 20260504023455 | 10 | 213 | 4.8 | 6.4 | 0.00 | 0.00 | 0.00 | 67 | 1011.4 |
| 20260504022950 | 10 | 156 | 3.2 | 6.4 | 0.00 | 0.00 | 0.00 | 66 | 1011.4 |
| 20260504022447 | 10 | 203 | 3.2 | 6.4 | 0.00 | 0.00 | 0.00 | 67 | 1011.3 |
| 20260504021943 | 10 | 137 | 4.8 | 4.8 | 0.00 | 0.00 | 0.00 | 68 | 1011.5 |
| 20260504021441 | 10 | 137 | 3.2 | 6.4 | 0.00 | 0.00 | 0.00 | 68 | 1011.5 |
| 20260504020938 | 10 | 230 | 3.2 | 4.8 | 0.00 | 0.00 | 0.00 | 68 | 1011.6 |
| 20260504020434 | 10 | 131 | 3.2 | 6.4 | 0.00 | 0.00 | 0.00 | 68 | 1011.4 |
| 20260504015931 | 10 | 220 | 3.2 | 6.4 | 0.00 | 0.00 | 0.00 | 68 | 1011.6 |
| 20260504015427 | 10 | 240 | 6.4 | 6.4 | 0.00 | 0.00 | 0.00 | 68 | 1011.7 |
| 20260504014923 | 10 | 146 | 6.4 | 9.7 | 0.00 | 0.00 | 0.00 | 68 | 1011.4 |
| 20260504014419 | 10 | 182 | 4.8 | 9.7 | 0.00 | 0.00 | 0.00 | 68 | 1011.5 |
| 20260504013916 | 10 | 141 | 4.8 | 6.4 | 0.00 | 0.00 | 0.00 | 68 | 1011.6 |
| 20260504013415 | 10 | 150 | 4.8 | 4.8 | 0.00 | 0.00 | 0.00 | 68 | 1011.5 |
| 20260504012910 | 10 | 160 | 4.8 | 4.8 | 0.00 | 0.00 | 0.00 | 68 | 1011.5 |
| 20260504012409 | 10 | 154 | 3.2 | 4.8 | 0.00 | 0.00 | 0.00 | 68 | 1011.4 |
| 20260504011906 | 10 | 147 | 3.2 | 6.4 | 0.00 | 0.00 | 0.00 | 68 | 1011.5 |
| 20260504011403 | 10 | 158 | 1.6 | 4.8 | 0.00 | 0.00 | 0.00 | 69 | 1011.4 |
| 20260504010858 | 10 | 148 | 3.2 | 6.4 | 0.00 | 0.00 | 0.00 | 68 | 1011.8 |
| 20260504010354 | 10 | 148 | 3.2 | 3.2 | 0.00 | 0.00 | 0.00 | 68 | 1011.8 |
| 20260504005851 | 10 | 212 | 1.6 | 3.2 | 0.00 | 0.00 | 0.00 | 68 | 1011.7 |
| 20260504005348 | 10 | 199 | 1.6 | 4.8 | 0.00 | 0.00 | 0.00 | 68 | 1011.7 |
| 20260504004845 | 10 | 130 | 3.2 | 3.2 | 0.00 | 0.00 | 0.00 | 68 | 1011.6 |
| 20260504004343 | 10 | 203 | 1.6 | 3.2 | 0.00 | 0.00 | 0.00 | 68 | 1011.8 |
| 20260504003839 | 10 | 157 | 3.2 | 3.2 | 0.00 | 0.00 | 0.00 | 67 | 1011.6 |
| 20260504003336 | 10 | 160 | 1.6 | 3.2 | 0.00 | 0.00 | 0.00 | 68 | 1011.8 |
| 20260504002833 | 11 | 150 | 1.6 | 3.2 | 0.00 | 0.00 | 0.00 | 67 | 1011.8 |
| 20260504002330 | 11 | 178 | 3.2 | 3.2 | 0.00 | 0.00 | 0.00 | 66 | 1011.6 |
| 20260504001827 | 11 | 135 | 0.0 | 4.8 | 0.00 | 0.00 | 0.00 | 66 | 1011.7 |
| 20260504001324 | 11 | 156 | 1.6 | 1.6 | 0.00 | 0.00 | 0.00 | 64 | 1011.7 |
| 20260504000821 | 11 | 122 | 1.6 | 4.8 | 0.00 | 0.00 | 0.00 | 64 | 1011.8 |
| 20260504000318 | 11 | 160 | 1.6 | 6.4 | 0.00 | 0.00 | 0.00 | 65 | 1011.8 |
| 20260503235816 | 11 | 218 | 1.6 | 3.2 | 0.00 | 0.00 | 0.00 | 64 | 1012.1 |
| 20260503235313 | 11 | 224 | 1.6 | 4.8 | 0.00 | 0.00 | 0.00 | 64 | 1012.2 |
| 20260503234811 | 11 | 234 | 3.2 | 3.2 | 0.00 | 0.00 | 0.00 | 64 | 1011.9 |
| 20260503234308 | 11 | 233 | 1.6 | 6.4 | 0.00 | 0.00 | 0.00 | 63 | 1012.2 |
| 20260503233806 | 11 | 216 | 3.2 | 4.8 | 0.00 | 0.00 | 0.00 | 63 | 1012.4 |
| 20260503233301 | 11 | 244 | 9.7 | 11.3 | 0.00 | 0.00 | 0.00 | 62 | 1012.3 |
| 20260503232758 | 11 | 223 | 6.4 | 9.7 | 0.00 | 0.00 | 0.00 | 62 | 1012.3 |
| 20260503232256 | 11 | 214 | 9.7 | 14.5 | 0.00 | 0.00 | 0.00 | 61 | 1012.3 |
| 20260503231754 | 11 | 258 | 6.4 | 14.5 | 0.00 | 0.00 | 0.00 | 61 | 1012.2 |
| 20260503231250 | 11 | 233 | 8.0 | 16.1 | 0.00 | 0.00 | 0.00 | 61 | 1012.3 |
| 20260503230746 | 11 | 240 | 6.4 | 9.7 | 0.00 | 0.00 | 0.00 | 60 | 1012.5 |
| 20260503230244 | 11 | 228 | 12.9 | 16.1 | 0.00 | 0.00 | 0.00 | 59 | 1012.5 |
| 20260503225741 | 11 | 239 | 8.0 | 24.1 | 0.00 | 0.00 | 0.00 | 60 | 1012.5 |
| 20260503225241 | 12 | 280 | 12.9 | 16.1 | 0.00 | 0.00 | 0.00 | 60 | 1012.5 |
| 20260503224738 | 12 | 201 | 9.7 | 14.5 | 0.00 | 0.00 | 0.00 | 60 | 1012.6 |
| 20260503224236 | 12 | 225 | 9.7 | 11.3 | 0.00 | 0.00 | 0.00 | 59 | 1012.8 |
| 20260503223733 | 12 | 289 | 8.0 | 12.9 | 0.00 | 0.00 | 0.00 | 58 | 1012.7 |
| 20260503223231 | 12 | 291 | 9.7 | 12.9 | 0.00 | 0.00 | 0.00 | 57 | 1012.6 |
| 20260503222727 | 12 | 281 | 9.7 | 12.9 | 0.00 | 0.00 | 0.00 | 60 | 1012.4 |
| 20260503222225 | 12 | 274 | 8.0 | 20.9 | 0.00 | 0.00 | 0.00 | 58 | 1012.5 |
| 20260503221723 | 13 | 260 | 4.8 | 20.9 | 0.00 | 0.00 | 0.00 | 59 | 1012.4 |
| 20260503221221 | 13 | 217 | 12.9 | 16.1 | 0.00 | 0.00 | 0.00 | 55 | 1012.2 |
| 20260503220717 | 15 | 312 | 11.3 | 38.6 | 0.00 | 0.00 | 0.00 | 47 | 1012.1 |
| 20260503220214 | 15 | 286 | 8.0 | 17.7 | 0.00 | 0.00 | 0.00 | 39 | 1012.0 |
| 20260503215710 | 15 | 241 | 8.0 | 20.9 | 0.00 | 0.00 | 0.00 | 38 | 1012.0 |
| 20260503215208 | 15 | 234 | 3.2 | 12.9 | 0.00 | 0.00 | 0.00 | 38 | 1012.0 |
| 20260503214706 | 15 | 327 | 8.0 | 17.7 | 0.00 | 0.00 | 0.00 | 37 | 1012.1 |
| 20260503214202 | 15 | 219 | 6.4 | 11.3 | 0.00 | 0.00 | 0.00 | 38 | 1012.3 |
| 20260503213701 | 15 | 143 | 8.0 | 12.9 | 0.00 | 0.00 | 0.00 | 38 | 1012.2 |
| 20260503213157 | 15 | 266 | 8.0 | 14.5 | 0.00 | 0.00 | 0.00 | 36 | 1012.2 |
| 20260503212654 | 16 | 270 | 14.5 | 16.1 | 0.00 | 0.00 | 0.00 | 37 | 1012.1 |
| 20260503212152 | 15 | 251 | 6.4 | 16.1 | 0.00 | 0.00 | 0.00 | 38 | 1012.1 |
| 20260503211650 | 15 | 335 | 9.7 | 11.3 | 0.00 | 0.00 | 0.00 | 38 | 1012.0 |
| 20260503211145 | 15 | 295 | 4.8 | 12.9 | 0.00 | 0.00 | 0.00 | 38 | 1012.3 |
| 20260503210641 | 15 | 247 | 16.1 | 20.9 | 0.00 | 0.00 | 0.00 | 37 | 1012.4 |
| 20260503210138 | 15 | 243 | 4.8 | 11.3 | 0.00 | 0.00 | 0.00 | 38 | 1012.3 |
| 20260503205634 | 15 | 267 | 8.0 | 12.9 | 0.00 | 0.00 | 0.00 | 37 | 1012.3 |
| 20260503205130 | 15 | 241 | 6.4 | 24.1 | 0.00 | 0.00 | 0.00 | 38 | 1012.4 |
| 20260503204627 | 15 | 235 | 14.5 | 22.5 | 0.00 | 0.00 | 0.00 | 36 | 1012.4 |
| 20260503204125 | 15 | 225 | 12.9 | 20.9 | 0.00 | 0.00 | 0.00 | 36 | 1012.4 |
| 20260503203621 | 16 | 248 | 6.4 | 22.5 | 0.00 | 0.00 | 0.00 | 36 | 1012.6 |
| 20260503203119 | 16 | 194 | 9.7 | 11.3 | 0.00 | 0.00 | 0.00 | 36 | 1012.5 |
| 20260503202616 | 16 | 228 | 14.5 | 20.9 | 0.00 | 0.00 | 0.00 | 36 | 1012.6 |
| 20260503202114 | 16 | 221 | 9.7 | 17.7 | 0.00 | 0.00 | 0.00 | 37 | 1012.6 |
| 20260503201612 | 16 | 346 | 6.4 | 17.7 | 0.00 | 0.00 | 0.00 | 36 | 1012.7 |
| 20260503201109 | 16 | 315 | 6.4 | 20.9 | 0.00 | 0.00 | 0.00 | 36 | 1012.9 |
| 20260503200605 | 16 | 253 | 6.4 | 12.9 | 0.00 | 0.00 | 0.00 | 36 | 1013.0 |
| 20260503195559 | 16 | 248 | 6.4 | 11.3 | 0.00 | 0.00 | 0.00 | 37 | 1012.9 |
| 20260503195056 | 16 | 244 | 12.9 | 17.7 | 0.00 | 0.00 | 0.00 | 37 | 1013.3 |
| 20260503194553 | 16 | 256 | 12.9 | 17.7 | 0.00 | 0.00 | 0.00 | 34 | 1013.1 |
| 20260503194053 | 16 | 180 | 9.7 | 14.5 | 0.00 | 0.00 | 0.00 | 36 | 1013.5 |
| 20260503193550 | 16 | 226 | 6.4 | 12.9 | 0.00 | 0.00 | 0.00 | 37 | 1013.2 |
| 20260503193045 | 16 | 258 | 9.7 | 12.9 | 0.00 | 0.00 | 0.00 | 37 | 1013.3 |
| 20260503192541 | 16 | 255 | 14.5 | 20.9 | 0.00 | 0.00 | 0.00 | 35 | 1013.3 |
| 20260503192037 | 16 | 234 | 11.3 | 16.1 | 0.00 | 0.00 | 0.00 | 35 | 1013.3 |
| 20260503191534 | 16 | 222 | 6.4 | 12.9 | 0.00 | 0.00 | 0.00 | 38 | 1013.5 |
| 20260503191031 | 16 | 255 | 11.3 | 20.9 | 0.00 | 0.00 | 0.00 | 35 | 1013.5 |
| 20260503190528 | 16 | 232 | 14.5 | 22.5 | 0.00 | 0.00 | 0.00 | 36 | 1013.7 |
| 20260503190025 | 16 | 246 | 14.5 | 16.1 | 0.00 | 0.00 | 0.00 | 34 | 1013.8 |
| 20260503185521 | 15 | 223 | 11.3 | 14.5 | 0.00 | 0.00 | 0.00 | 36 | 1013.8 |
| 20260503185020 | 16 | 252 | 11.3 | 20.9 | 0.00 | 0.00 | 0.00 | 36 | 1013.9 |
| 20260503184517 | 16 | 281 | 9.7 | 12.9 | 0.00 | 0.00 | 0.00 | 37 | 1014.0 |
| 20260503184013 | 16 | 272 | 4.8 | 22.5 | 0.00 | 0.00 | 0.00 | 37 | 1014.1 |
| 20260503183510 | 16 | 228 | 11.3 | 14.5 | 0.00 | 0.00 | 0.00 | 37 | 1014.4 |
| 20260503183007 | 16 | 232 | 11.3 | 12.9 | 0.00 | 0.00 | 0.00 | 35 | 1014.1 |
| 20260503182506 | 16 | 234 | 9.7 | 14.5 | 0.00 | 0.00 | 0.00 | 37 | 1014.2 |
| 20260503182004 | 16 | 235 | 6.4 | 17.7 | 0.00 | 0.00 | 0.00 | 37 | 1014.2 |
| 20260503181500 | 16 | 221 | 11.3 | 16.1 | 0.00 | 0.00 | 0.00 | 36 | 1014.3 |
| 20260503180956 | 15 | 283 | 6.4 | 6.4 | 0.00 | 0.00 | 0.00 | 37 | 1014.4 |
| 20260503180454 | 16 | 222 | 11.3 | 17.7 | 0.00 | 0.00 | 0.00 | 35 | 1014.5 |
| 20260503175951 | 16 | 241 | 9.7 | 16.1 | 0.00 | 0.00 | 0.00 | 36 | 1014.4 |
| 20260503175449 | 16 | 216 | 11.3 | 12.9 | 0.00 | 0.00 | 0.00 | 34 | 1014.5 |
| 20260503174944 | 16 | 237 | 12.9 | 17.7 | 0.00 | 0.00 | 0.00 | 34 | 1014.7 |
| 20260503174443 | 15 | 221 | 9.7 | 16.1 | 0.00 | 0.00 | 0.00 | 34 | 1014.4 |
| 20260503173944 | 15 | 275 | 3.2 | 12.9 | 0.00 | 0.00 | 0.00 | 36 | 1014.8 |
| 20260503173440 | 16 | 255 | 9.7 | 12.9 | 0.00 | 0.00 | 0.00 | 35 | 1014.8 |
| 20260503172937 | 15 | 217 | 11.3 | 12.9 | 0.00 | 0.00 | 0.00 | 35 | 1014.7 |
| 20260503172434 | 15 | 240 | 8.0 | 17.7 | 0.00 | 0.00 | 0.00 | 36 | 1014.8 |
| 20260503171930 | 16 | 235 | 6.4 | 11.3 | 0.00 | 0.00 | 0.00 | 35 | 1014.8 |
| 20260503171427 | 16 | 274 | 12.9 | 17.7 | 0.00 | 0.00 | 0.00 | 33 | 1014.7 |
| 20260503170925 | 15 | 264 | 11.3 | 17.7 | 0.00 | 0.00 | 0.00 | 36 | 1014.9 |
| 20260503170421 | 15 | 285 | 12.9 | 14.5 | 0.00 | 0.00 | 0.00 | 36 | 1014.9 |